Regional Weather Roundup
Issued by NWS

Home | Current Version | Previous Version | Text Only | Print | Product List | Glossary Off
Versions: 1 2 3 4 5 6 7 8 9 10 11 12 13 14 15 16 17 18 19 20 21 22 23 24 25 26 27 28 29 30 31 32 33 34 35 36 37 38 39 40 41 42 43 44 45 46 47 48 49 50

000
ASUS43 KMKX 292014
RWRWI

WISCONSIN REGIONAL WEATHER ROUNDUP
NATIONAL WEATHER SERVICE MILWAUKEE/SULLIVAN WI
300 PM CDT FRI MAY 29 2015

NOTE: "FAIR" INDICATES FEW OR NO CLOUDS BELOW 12,000 FEET WITH NO
SIGNIFICANT WEATHER AND/OR OBSTRUCTIONS TO VISIBILITY.

WIZ001-002-006>008-014>016-023>028-292100-
NORTHWEST WISCONSIN

CITY           SKY/WX    TMP DP  RH WIND       PRES   REMARKS
SUPERIOR ARPT  CLOUDY    64  56  75 N8G17     29.93R
ASHLAND        CLOUDY    69  60  73 NW10      29.90R
HAYWARD        LGT RAIN  66  62  87 VRB5      29.90S
SIREN          RAIN      65  64  94 CALM      29.92R
CUMBERLAND     RAIN      63  63 100 N6        29.90S
RICE LAKE      CLOUDY    67  64  88 CALM      29.90F
CHETEK         CLOUDY    66  65  94 MISG      29.89S
LADYSMITH      CLOUDY    70  65  84 W3        29.91F
EAU CLAIRE     CLOUDY    71  64  78 SW6       29.88S
MENOMONIE      LGT RAIN  70  66  86 SW7       29.89S
NEW RICHMOND   CLOUDY    69  65  85 NW12      29.90S
OSCEOLA        HVY RAIN  64  64 100 N7        29.93S
$$

WIZ003>005-009-010-017-018-292100-
NORTH CENTRAL WISCONSIN

CITY           SKY/WX    TMP DP  RH WIND       PRES   REMARKS
MANITOWISH WTR CLOUDY    67  62  83 W6        29.90S
ARBOR VITAE    CLOUDY    67  64  89 W6        29.91S
WOODRUFF       CLOUDY    67  64  89 W6        29.91S
RHINELANDER    CLOUDY    71  61  70 SW10      29.91F
EAGLE RIVER    LGT RAIN  65  65  98 SW9       29.91R
LAND O LAKES   CLOUDY    66  64  91 SW5       29.91S
PHILLIPS       CLOUDY    68  63  83 SW5       29.90S
TOMAHAWK       CLOUDY    69  61  76 W6        29.91F
MEDFORD        CLOUDY    70  64  81 S3        29.90F
MERRILL        CLOUDY   N/A N/A N/A SW8       29.90F
$$

WIZ029-030-035-036-043>047-292100-
CENTRAL WISCONSIN

CITY           SKY/WX    TMP DP  RH WIND       PRES   REMARKS
WAUSAU         CLOUDY    75  62  64 VRB6      29.87F
MOSINEE        MOSUNNY   77  63  61 SW9       29.89F
MARSHFIELD     CLOUDY    77  63  61 W8        29.88F
STEVENS POINT  CLOUDY    77  61  58 S15       29.88F
WAUPACA        PTSUNNY   78  64  62 S5        29.89F HX  80
WAUTOMA        CLOUDY    79  66  64 S5        29.90F HX  81
WISC RAPIDS    CLOUDY    79  60  52 S9        29.89F HX  80
CAMP DOUGLAS   CLOUDY    79  68  69 SW8       29.88F HX  81
$$

WIZ011>013-019>022-031-037>040-048>050-292100-
NORTHEAST WISCONSIN

CITY           SKY/WX    TMP DP  RH WIND       PRES   REMARKS
ANTIGO         CLOUDY    73  62  68 SW13G20   29.90F
SHAWANO        CLOUDY    78  62  57 SW8       29.89F HX  80
OCONTO         CLOUDY    79  65  62 SW7       29.88F HX  81
STURGEON BAY   PTSUNNY   72  63  73 S15       29.93F
GREEN BAY      CLOUDY    78  65  63 SW10      29.89F HX  80
MANITOWOC      CLOUDY    60  56  86 SE10      29.92F FOG
APPLETON       PTSUNNY   75  63  64 S12       29.91F
CLINTONVILLE   PTSUNNY   77  63  61 S9        29.89F
OSHKOSH        TSTM      68  64  87 W5G20     29.91R VSB 1
$$

WIZ032>034-041-042-053>061-292100-
SOUTHWEST WISCONSIN

CITY           SKY/WX    TMP DP  RH WIND       PRES   REMARKS
LA CROSSE      CLOUDY    76  65  68 SW7       29.87F
SPARTA         CLOUDY    77  60  55 SW5       29.89F
VIROQUA        CLOUDY    77  63  61 S10       29.91F
BOSCOBEL       PTSUNNY   80  62  54 SW12      29.89F HX  81
PRAIRIE DU CHI PTSUNNY   79  62  55 S7        29.89F HX  80
PLATTEVILLE    PTSUNNY   77  67  72 SW5       29.91F
$$

WIZ056-057-062-063-064-067-068-292100-
SOUTH CENTRAL WISCONSIN

CITY           SKY/WX    TMP DP  RH WIND       PRES   REMARKS
REEDSBURG      CLOUDY    75  67  74 S8        29.89F
BARABOO/DELLS  CLOUDY    77  65  66 S6        29.90S
LONE ROCK      PTSUNNY   78  68  71 SW9       29.89F HX  80
MINERAL POINT  PTSUNNY   77  66  69 SW7       29.92F
MADISON        PTSUNNY   79  65  62 S17       29.90F HX  81
MIDDLETON      PTSUNNY   80  62  54 SW13      29.91S HX  82
WATERTOWN      CLOUDY   N/A N/A N/A S9        29.91F
MONROE         PTSUNNY   75  66  73 SW13      29.92F
JANESVILLE     PTSUNNY   72  70  94 SW10      29.93S
$$

WIZ051-052-058>065-066-070>072-292100-
SOUTHEAST WISCONSIN

CITY           SKY/WX    TMP DP  RH WIND       PRES   REMARKS
MILWAUKEE      CLOUDY    74  63  68 SE13      29.92F
WAUKESHA       RAIN      72  66  83 SW5       29.95S FOG
MILWAUKEE/TIMM RAIN      75  63  64 SE7G21    29.92F
RACINE         PTSUNNY   72  62  71 S15       29.94F
BURLINGTON     CLOUDY    71  67  85 S7        29.93S
KENOSHA        CLOUDY    78  65  63 SE13G23   29.92F HX  80
FOND DU LAC    CLOUDY    76  65  68 S20       29.91F
SHEBOYGAN      LGT RAIN  68  64  87 S9        29.94F FOG
WEST BEND      RAIN      68  64  88 CALM      29.94F
JUNEAU         CLOUDY    74  65  75 S7        29.93F
$$

LSZ147-162-292100-
LAKE SUPERIOR

STATION/POSITION TIME  TEMP    WIND        PRES    WAVE
                       AIR SEA DIR/SP/G            HT/PER
                 (UTC) (F)     (DEG/KT/KT) (MB)    (FT/S)
W MID LAKE BUOY  1950   41 37  270/ 12/ 14   N/A     1
DEVILS ISLAND    2000   47     260/ 12/ 13   N/A
PORT WING        1900   51      CALM  /  2   N/A
SAXON HARBOR     1840   70     270/  2/  7   N/A
$$

LMZ867-665-643>646-292100-
LAKE MICHIGAN

STATION/POSITION TIME  TEMP    WIND        PRES    WAVE
                       AIR SEA DIR/SP/G            HT/PER
                 (UTC) (F)     (DEG/KT/KT) (MB)    (FT/S)
CHAMBERS ISLAND  1900   69     130/  6/ 11   N/A
N MID LAKE BUOY  1950   43 37  190/ 10/ 12   N/A     1/ 3
NORTHPORT PIER   1900   62     140/ 10/ 16   N/A
SISTER BAY       1918   71     150/ 14/ 18   N/A
ALGOMA LAKESHORE 1823          160/  3/  4   N/A
KEWAUNEE LAKESHO 1900   51     180/ 11/ 14   N/A
SHEBOYGAN LAKESH 2000   62     190/ 16/ 18   N/A
PORT WASHINGTON  1900   60      CALM  /  4   N/A
ATWATER BUOY     1900   57     150/ 14/ 14   N/A
MILWAUKEE LAKESH 1900          140/ 14/ 15   N/A
S MID LAKE BUOY  1950   49 38  170/  8/ 10   N/A     0
KENOSHA   LAKESH 2000   61     170/ 12/ 15   N/A
$$

TC  - TEMPERATURE IN CELSIUS
VSB - VISIBILITY IN STATUTE MILES
WCI - WIND CHILL INDEX
HX  - HEAT INDEX




USA.gov is the U.S. government's official web portal to all federal, state and local government web resources and services.